This is the latest recevied weather packets stored in our database for station/object AD8BW. If no packets are shown the sender has not sent any weather packets the latest 10 day(s).
| Time | Temp. | Humidity | Pressure | Rain* | Wind** | Luminosity | Snow |
|---|---|---|---|---|---|---|---|
| 1777095672 | 10.56° C | 96% | 1006.8 hPa | 0 mm | - | 0 W/m² | - |
| 1777095073 | 10.56° C | 96% | 1007 hPa | 0 mm | - | 0 W/m² | - |
| 1777094473 | 10.56° C | 96% | 1006.9 hPa | 0 mm | - | 0 W/m² | - |
| 1777093881 | 10.56° C | 96% | 1006.9 hPa | 0.25 mm | - | 0 W/m² | - |
| 1777093284 | 10.56° C | 96% | 1006.8 hPa | 0.51 mm | - | 0 W/m² | - |
| 1777092672 | 10.56° C | 96% | 1006.8 hPa | 0.51 mm | - | 0 W/m² | - |
| 1777092073 | 10.56° C | 95% | 1006.7 hPa | 0.76 mm | - | 0 W/m² | - |
| 1777091474 | 10.56° C | 95% | 1006.8 hPa | 0.76 mm | - | 0 W/m² | - |
| 1777090870 | 10.56° C | 95% | 1006.8 hPa | 1.02 mm | - | 0 W/m² | - |
| 1777090271 | 10.56° C | 95% | 1006.8 hPa | 0.76 mm | - | 0 W/m² | - |
| 1777089673 | 10° C | 95% | 1007 hPa | 0.51 mm | - | 0 W/m² | - |
| 1777089067 | 10° C | 95% | 1007.1 hPa | 0.51 mm | - | 0 W/m² | - |
| 1777088470 | 10° C | 95% | 1007.1 hPa | 0.51 mm | - | 0 W/m² | - |
| 1777087871 | 10° C | 94% | 1007.3 hPa | 1.27 mm | - | 0 W/m² | - |
| 1777087267 | 10° C | 94% | 1007.2 hPa | 1.78 mm | - | 0 W/m² | - |
| 1777086671 | 10° C | 94% | 1007.3 hPa | 2.03 mm | - | 0 W/m² | - |
| 1777086067 | 10° C | 94% | 1007.3 hPa | 2.29 mm | - | 0 W/m² | - |
| 1777085469 | 10° C | 94% | 1007.3 hPa | 2.29 mm | - | 0 W/m² | - |
| 1777084869 | 10.56° C | 94% | 1007.4 hPa | 2.03 mm | - | 0 W/m² | - |
| 1777084272 | 10.56° C | 93% | 1007.4 hPa | 1.27 mm | - | 0 W/m² | - |
| 1777083670 | 10.56° C | 94% | 1007.4 hPa | 0.51 mm | - | 0 W/m² | - |
| 1777083064 | 10.56° C | 94% | 1007.5 hPa | 0.51 mm | - | 0 W/m² | - |
| 1777082462 | 11.11° C | 94% | 1007.3 hPa | 0.25 mm | - | 0 W/m² | - |
| 1777081859 | 11.67° C | 94% | 1007.2 hPa | 0.25 mm | - | 0 W/m² | - |
| 1777081260 | 11.67° C | 94% | 1007.3 hPa | 0.25 mm | - | 0 W/m² | - |
* Rain latest hour (hover to see other rain measurements)
** Current wind speed in m/s (hover to see current wind gust speed)